Morgans Point, Texas
Current Conditions -  °F | °C
As of 6:50 AM on Monday 22 Dec 2014 (Local Time) from KEFD Reporting Station
Light Fog Light Fog  
Wind Chill: 59°   Ceiling: 2500
Heat Index: 59°   Visibility: 7mi
Dew Point: 57°   Wind: 0mph
Humidity: 94%   Direction: NA
Pressure: 29.78"   Gusts: NA
Location:  29.6785°N, 95.0483°W
Report Text: KEFD 221250Z 00000KT 7SM MIFG FEW008 BKN025 15/14 A2978
Loading
Personal Weather Stations






























Interactive Weather Map New forecast layout! Learn more

10-Day Weather Forecast

Advertisements
Track Severe Weather on mobile